Location: Home
(42.5358°N, 72.7383°W)
Time: 10:07:15
(UTC-04:00)

A-11 Canister half - Pass Details

Date: 03 July 2022
Orbit: 1514 x 1685 km, 47.2° (Epoch: 15 August)

Event Time Altitude Azimuth Distance (km) Brightness Sun altitude
Rises 02:49:26 0° 289° (WNW) 4,928 11.6 -19.4°
Reaches altitude 10° 02:52:38 10° 291° (WNW) 3,927 11.0 -19.1°
Maximum altitude 03:02:45 80° 18° (NNE) 1,658 9.2 -18.2°
Drops below altitude 10° 03:12:30 10° 106° (ESE) 3,794 11.3 -17.3°
Sets 03:15:32 0° 108° (ESE) 4,754 11.8 -17.0°
